Location: Devore Heights
(34.2372°N, 117.4156°W)
Time: 17:46:59
(UTC+00:00)

S-56A Canister/Altair - Pass Details

Date: 15 September 2024
Orbit: 636 x 2487 km, 38.9° (Epoch: 14 October)

Event Time Altitude Azimuth Distance (km) Brightness Sun altitude
Rises 01:46:55 0° 239° (WSW) 3,042 11.7 1.2°
Reaches altitude 10° 01:49:00 10° 236° (WSW) 2,227 10.9 0.8°
Maximum altitude 01:54:04 71° 153° (SSE) 941 8.0 -0.3°
Drops below altitude 10° 02:01:20 10° 71° (ENE) 3,155 10.1 -1.8°
Sets 02:04:48 0° 70° (ENE) 4,428 10.8 -2.5°
